User: anonymous
Location: Maiden
(35.5760°N, 81.2120°W)
Time: 00:21:09
(UTC-04:00)
Language:

Cosmos 2151 - Orbit

View from above orbital plane
View from above orbital plane
View from above satellite
View from above satellite

Ground track
Ground track

The orbit data is extracted from the following two-line orbital elements,

1 21422U 91042A   14232.33890042  .00000531  00000-0  52044-4 0  9794
2 21422 082.5039 147.5746 0016130 134.2369 226.0177 14.90235430254718
Epoch (UTC): 20 August 2014 08:08:00
Eccentricity: 0.0016130
inclination: 82.5039°
perigee height: 586 km
apogee height: 608 km
right ascension of ascending node: 147.5746°
argument of perigee: 134.2369°
revolutions per day: 14.90235430
mean anomaly at epoch: 226.0177°
orbit number at epoch: 25471

The dashed part of the orbit path shows where the satellite is in the earth's shadow,  

DLR